QPF
0.00 0.00 0.00 0.00 0.00 0.00 0.00 0.00 0.00 0.00 0.00 0.00 0.00 0.01 0.01 0.01 0.01 0.01 0.01 0.02 0.02 0.02 0.02 0.02 0.02 0.02 0.02 0.02 0.02 0.03 0.02 0.02 0.02 0.01 0.01 0.01 0.01 0.01 0.01 0.01 0.01 0.00 0.00
0.00 0.00 0.00 0.00 0.00 0.00 0.00 0.00 0.00 0.00 0.00 0.00 0.00 0.01 0.01 0.01 0.02 0.02 0.02 0.02 0.03 0.03 0.03 0.03 0.03 0.03 0.03 0.03 0.03 0.03 0.03 0.03 0.02 0.02 0.01 0.01 0.01 0.01 0.01 0.01 0.01 0.00 0.00
0.00 0.00 0.00 0.00 0.00 0.00 0.00 0.00 0.01 0.01 0.01 0.01 0.01 0.01 0.01 0.02 0.02 0.03 0.03 0.03 0.03 0.04 0.04 0.04 0.04 0.03 0.03 0.03 0.03 0.03 0.03 0.03 0.02 0.02 0.01 0.01 0.01 0.02 0.02 0.01 0.01 0.01 0.00
0.00 0.00 0.00 0.00 0.00 0.00 0.00 0.00 0.01 0.01 0.01 0.02 0.02 0.02 0.02 0.03 0.03 0.03 0.03 0.03 0.04 0.04 0.03 0.03 0.03 0.03 0.03 0.03 0.04 0.03 0.03 0.03 0.03 0.03 0.02 0.02 0.02 0.02 0.02 0.02 0.01 0.01 0.00
0.00 0.00 0.00 0.00 0.00 0.00 0.00 0.00 0.00 0.01 0.01 0.01 0.02 0.02 0.02 0.02 0.02 0.03 0.03 0.04 0.04 0.04 0.04 0.04 0.04 0.05 0.05 0.06 0.05 0.04 0.04 0.04 0.03 0.03 0.03 0.02 0.02 0.01 0.01 0.01 0.01 0.01 0.00
0.00 0.00 0.00 0.00 0.00 0.00 0.00 0.00 0.00 0.00 0.00 0.01 0.01 0.01 0.02 0.02 0.03 0.04 0.04 0.04 0.04 0.04 0.05 0.05 0.05 0.07 0.08 0.08 0.07 0.06 0.04 0.03 0.03 0.03 0.03 0.02 0.02 0.02 0.02 0.02 0.02 0.01 0.01
0.00 0.00 0.00 0.00 0.00 0.00 0.00 0.00 0.00 0.00 0.00 0.01 0.01 0.01 0.01 0.02 0.03 0.03 0.04 0.04 0.04 0.05 0.05 0.05 0.05 0.06 0.08 0.06 0.07 0.08 0.06 0.06 0.05 0.04 0.03 0.03 0.02 0.02 0.02 0.02 0.01 0.01 0.00
0.00 0.00 0.00 0.00 0.00 0.00 0.00 0.00 0.00 0.00 0.00 0.01 0.01 0.01 0.01 0.01 0.03 0.03 0.05 0.04 0.04 0.04 0.04 0.05 0.06 0.07 0.08 0.08 0.07 0.08 0.07 0.07 0.06 0.05 0.04 0.03 0.03 0.03 0.02 0.01 0.01 0.01 0.01
0.00 0.00 0.00 0.00 0.00 0.00 0.00 0.00 0.00 0.00 0.00 0.00 0.00 0.01 0.01 0.01 0.03 0.04 0.04 0.03 0.03 0.04 0.04 0.05 0.06 0.07 0.10 0.11 0.09 0.08 0.08 0.08 0.07 0.06 0.05 0.04 0.03 0.02 0.01 0.01 0.01 0.01 0.01
0.00 0.00 0.00 0.00 0.00 0.00 0.00 0.00 0.00 0.00 0.00 0.00 0.00 0.00 0.01 0.01 0.03 0.03 0.03 0.02 0.03 0.03 0.04 0.04 0.08 0.08 0.10 0.11 0.08 0.08 0.08 0.07 0.07 0.06 0.05 0.04 0.03 0.02 0.01 0.01 0.01 0.01 0.01
0.00 0.00 0.00 0.00 0.00 0.00 0.00 0.00 0.00 0.00 0.00 0.00 0.00 0.00 0.01 0.01 0.02 0.02 0.03 0.02 0.02 0.02 0.03 0.03 0.04 0.08 0.09 0.09 0.08 0.07 0.08 0.08 0.07 0.06 0.05 0.04 0.03 0.02 0.01 0.01 0.01 0.01 0.01
0.00 0.00 0.00 0.00 0.00 0.00 0.00 0.00 0.00 0.00 0.00 0.00 0.00 0.00 0.00 0.00 0.01 0.01 0.02 0.02 0.02 0.02 0.02 0.03 0.05 0.09 0.10 0.09 0.08 0.07 0.07 0.07 0.05 0.05 0.04 0.03 0.03 0.02 0.02 0.01 0.01 0.01 0.00
0.00 0.00 0.00 0.00 0.00 0.00 0.00 0.00 0.00 0.00 0.00 0.00 0.00 0.00 0.00 0.00 0.00 0.01 0.01 0.01 0.02 0.01 0.02 0.04 0.06 0.08 0.08 0.07 0.06 0.06 0.06 0.05 0.04 0.04 0.04 0.03 0.03 0.03 0.03 0.02 0.02 0.01 0.01
0.00 0.00 0.00 0.00 0.00 0.00 0.00 0.00 0.00 0.00 0.00 0.00 0.00 0.00 0.00 0.00 0.00 0.00 0.01 0.01 0.01 0.02 0.02 0.04 0.05 0.05 0.05 0.04 0.04 0.04 0.04 0.04 0.04 0.03 0.03 0.04 0.04 0.04 0.03 0.03 0.03 0.02 0.02
0.00 0.00 0.00 0.00 0.00 0.00 0.00 0.00 0.00 0.00 0.00 0.00 0.00 0.00 0.00 0.00 0.00 0.01 0.01 0.01 0.01 0.02 0.02 0.03 0.03 0.03 0.04 0.04 0.04 0.05 0.04 0.04 0.04 0.04 0.04 0.05 0.05 0.04 0.04 0.03 0.03 0.03 0.02
0.00 0.00 0.00 0.00 0.00 0.00 0.00 0.00 0.00 0.00 0.00 0.00 0.00 0.00 0.00 0.00 0.00 0.01 0.01 0.01 0.01 0.02 0.02 0.02 0.02 0.02 0.02 0.03 0.03 0.04 0.04 0.04 0.04 0.05 0.05 0.05 0.04 0.04 0.04 0.03 0.03 0.03 0.02
0.00 0.00 0.00 0.00 0.00 0.00 0.00 0.00 0.00 0.00 0.00 0.00 0.00 0.00 0.00 0.00 0.00 0.00 0.01 0.01 0.02 0.02 0.02 0.01 0.01 0.02 0.02 0.03 0.03 0.03 0.04 0.04 0.05 0.05 0.05 0.04 0.04 0.04 0.04 0.03 0.03 0.02 0.02
0.00 0.00 0.00 0.00 0.00 0.00 0.00 0.00 0.00 0.00 0.00 0.00 0.00 0.00 0.00 0.00 0.00 0.00 0.01 0.01 0.01 0.02 0.01 0.01 0.02 0.02 0.03 0.03 0.04 0.04 0.05 0.05 0.06 0.05 0.05 0.04 0.04 0.04 0.04 0.03 0.02 0.02 0.02
0.00 0.00 0.00 0.00 0.00 0.00 0.00 0.00 0.00 0.00 0.00 0.00 0.00 0.00 0.00 0.00 0.00 0.00 0.00 0.01 0.01 0.02 0.02 0.03 0.03 0.03 0.04 0.04 0.05 0.05 0.05 0.05 0.04 0.04 0.05 0.04 0.04 0.05 0.04 0.03 0.03 0.03 0.03
0.00 0.00 0.00 0.00 0.00 0.00 0.00 0.00 0.00 0.00 0.00 0.00 0.00 0.00 0.00 0.00 0.00 0.00 0.01 0.01 0.02 0.02 0.03 0.03 0.03 0.04 0.04 0.04 0.05 0.05 0.05 0.04 0.04 0.05 0.05 0.05 0.05 0.05 0.04 0.04 0.04 0.03 0.03
0.00 0.00 0.00 0.00 0.00 0.00 0.00 0.00 0.00 0.00 0.00 0.00 0.00 0.00 0.00 0.00 0.00 0.01 0.01 0.01 0.02 0.02 0.02 0.03 0.03 0.03 0.04 0.04 0.05 0.05 0.05 0.05 0.05 0.05 0.05 0.05 0.05 0.05 0.04 0.04 0.04 0.04 0.03
0.00 0.00 0.00 0.00 0.00 0.00 0.00 0.00 0.00 0.00 0.00 0.00 0.00 0.00 0.00 0.00 0.00 0.01 0.01 0.01 0.01 0.02 0.02 0.02 0.03 0.03 0.03 0.04 0.05 0.05 0.05 0.05 0.05 0.05 0.05 0.05 0.05 0.04 0.04 0.04 0.04 0.04 0.04
0.00 0.00 0.00 0.00 0.00 0.00 0.00 0.00 0.00 0.00 0.00 0.00 0.00 0.00 0.01 0.01 0.01 0.01 0.01 0.01 0.01 0.01 0.01 0.02 0.02 0.02 0.03 0.03 0.04 0.05 0.05 0.04 0.04 0.05 0.05 0.05 0.05 0.04 0.04 0.04 0.04 0.04 0.04
0.00 0.00 0.00 0.00 0.00 0.00 0.00 0.00 0.00 0.00 0.00 0.00 0.00 0.01 0.01 0.01 0.01 0.01 0.01 0.01 0.01 0.01 0.01 0.01 0.01 0.02 0.02 0.02 0.02 0.03 0.03 0.03 0.04 0.04 0.04 0.05 0.04 0.04 0.04 0.04 0.04 0.04 0.04
0.00 0.00 0.00 0.00 0.00 0.00 0.00 0.00 0.00 0.00 0.00 0.00 0.00 0.00 0.00 0.00 0.00 0.00 0.00 0.00 0.00 0.00 0.00 0.00 0.01 0.01 0.01 0.01 0.01 0.02 0.02 0.02 0.03 0.03 0.04 0.04 0.04 0.04 0.03 0.03 0.04 0.04 0.04
0.00 0.00 0.00 0.00 0.00 0.00 0.00 0.00 0.00 0.00 0.00 0.00 0.00 0.00 0.00 0.00 0.00 0.00 0.00 0.00 0.00 0.00 0.00 0.00 0.00 0.01 0.01 0.01 0.01 0.01 0.02 0.02 0.02 0.03 0.03 0.03 0.03 0.03 0.03 0.03 0.04 0.04 0.04
MSLP
1011.30 1011.57 1011.83 1012.07 1012.30 1012.53 1012.76 1013.01 1013.29 1013.61 1013.97 1014.36 1014.77 1015.19 1015.61 1016.01 1016.39 1016.75 1017.08 1017.40 1017.71 1018.00 1018.30 1018.61 1018.93 1019.30 1019.72 1020.22 1020.82 1021.52 1022.34 1023.24 1024.22 1025.22 1026.21 1027.13 1027.94 1028.63 1029.16 1029.57 1029.85 1030.06 1030.22
1010.75 1010.96 1011.16 1011.35 1011.52 1011.69 1011.88 1012.09 1012.34 1012.62 1012.94 1013.28 1013.65 1014.03 1014.40 1014.77 1015.12 1015.47 1015.80 1016.12 1016.43 1016.73 1017.03 1017.32 1017.63 1017.97 1018.36 1018.83 1019.39 1020.08 1020.89 1021.81 1022.83 1023.90 1024.97 1026.00 1026.94 1027.75 1028.42 1028.94 1029.34 1029.64 1029.88
1010.36 1010.53 1010.68 1010.82 1010.94 1011.06 1011.19 1011.33 1011.51 1011.71 1011.96 1012.23 1012.52 1012.82 1013.14 1013.45 1013.77 1014.10 1014.42 1014.74 1015.07 1015.39 1015.70 1016.00 1016.32 1016.65 1017.02 1017.47 1018.01 1018.67 1019.46 1020.38 1021.40 1022.50 1023.62 1024.71 1025.73 1026.64 1027.42 1028.06 1028.57 1028.98 1029.31
1010.09 1010.24 1010.37 1010.47 1010.54 1010.60 1010.66 1010.72 1010.81 1010.93 1011.07 1011.24 1011.44 1011.67 1011.91 1012.17 1012.45 1012.75 1013.07 1013.40 1013.74 1014.08 1014.42 1014.75 1015.07 1015.42 1015.79 1016.23 1016.75 1017.38 1018.14 1019.02 1020.01 1021.09 1022.21 1023.32 1024.38 1025.36 1026.22 1026.96 1027.58 1028.10 1028.53
1009.90 1010.05 1010.17 1010.25 1010.29 1010.29 1010.28 1010.27 1010.27 1010.29 1010.33 1010.41 1010.52 1010.66 1010.84 1011.05 1011.29 1011.57 1011.89 1012.23 1012.58 1012.95 1013.31 1013.66 1014.02 1014.37 1014.75 1015.18 1015.68 1016.27 1016.99 1017.81 1018.75 1019.77 1020.85 1021.94 1023.01 1024.01 1024.93 1025.75 1026.47 1027.09 1027.62
1009.73 1009.91 1010.03 1010.11 1010.13 1010.10 1010.04 1009.97 1009.90 1009.83 1009.80 1009.80 1009.84 1009.92 1010.05 1010.22 1010.44 1010.71 1011.02 1011.36 1011.73 1012.11 1012.48 1012.86 1013.23 1013.59 1013.97 1014.39 1014.87 1015.42 1016.08 1016.83 1017.70 1018.64 1019.65 1020.69 1021.73 1022.74 1023.69 1024.56 1025.36 1026.07 1026.70
1009.56 1009.77 1009.92 1010.01 1010.03 1009.99 1009.92 1009.81 1009.70 1009.59 1009.51 1009.47 1009.47 1009.52 1009.62 1009.78 1009.99 1010.25 1010.55 1010.89 1011.25 1011.63 1012.01 1012.38 1012.75 1013.11 1013.49 1013.89 1014.34 1014.86 1015.45 1016.14 1016.92 1017.79 1018.71 1019.69 1020.68 1021.66 1022.62 1023.53 1024.37 1025.15 1025.86
1009.36 1009.61 1009.80 1009.92 1009.97 1009.96 1009.89 1009.79 1009.68 1009.57 1009.49 1009.44 1009.44 1009.49 1009.59 1009.74 1009.95 1010.20 1010.49 1010.81 1011.15 1011.51 1011.87 1012.22 1012.57 1012.92 1013.29 1013.67 1014.10 1014.58 1015.13 1015.76 1016.47 1017.25 1018.10 1019.00 1019.94 1020.88 1021.83 1022.74 1023.62 1024.44 1025.20
1009.16 1009.44 1009.67 1009.84 1009.93 1009.96 1009.94 1009.88 1009.81 1009.74 1009.68 1009.66 1009.68 1009.75 1009.86 1010.03 1010.23 1010.47 1010.74 1011.03 1011.34 1011.66 1011.98 1012.30 1012.62 1012.95 1013.30 1013.67 1014.08 1014.54 1015.06 1015.65 1016.30 1017.02 1017.81 1018.65 1019.52 1020.43 1021.34 1022.24 1023.12 1023.95 1024.73
1008.99 1009.30 1009.56 1009.77 1009.92 1010.01 1010.05 1010.05 1010.04 1010.02 1010.01 1010.04 1010.09 1010.19 1010.32 1010.49 1010.68 1010.91 1011.15 1011.40 1011.66 1011.93 1012.20 1012.49 1012.78 1013.09 1013.43 1013.80 1014.21 1014.66 1015.17 1015.74 1016.36 1017.04 1017.78 1018.56 1019.38 1020.23 1021.11 1021.98 1022.83 1023.66 1024.43
1008.89 1009.21 1009.50 1009.74 1009.94 1010.08 1010.19 1010.26 1010.31 1010.35 1010.40 1010.46 1010.55 1010.66 1010.79 1010.96 1011.14 1011.33 1011.53 1011.74 1011.96 1012.18 1012.42 1012.67 1012.94 1013.25 1013.59 1013.97 1014.39 1014.86 1015.38 1015.94 1016.55 1017.21 1017.90 1018.64 1019.41 1020.21 1021.03 1021.86 1022.68 1023.47 1024.20
1008.92 1009.22 1009.50 1009.76 1009.99 1010.18 1010.34 1010.46 1010.57 1010.66 1010.74 1010.83 1010.93 1011.04 1011.16 1011.30 1011.44 1011.60 1011.76 1011.93 1012.11 1012.30 1012.51 1012.75 1013.02 1013.33 1013.69 1014.10 1014.55 1015.04 1015.58 1016.15 1016.76 1017.39 1018.06 1018.76 1019.48 1020.22 1020.99 1021.76 1022.52 1023.27 1023.97
1009.11 1009.35 1009.60 1009.84 1010.08 1010.30 1010.49 1010.66 1010.80 1010.92 1011.01 1011.10 1011.18 1011.26 1011.35 1011.44 1011.54 1011.64 1011.76 1011.90 1012.05 1012.23 1012.44 1012.69 1012.98 1013.31 1013.70 1014.14 1014.63 1015.15 1015.70 1016.28 1016.88 1017.50 1018.13 1018.79 1019.45 1020.14 1020.84 1021.55 1022.26 1022.95 1023.61
1009.45 1009.61 1009.80 1010.01 1010.23 1010.46 1010.67 1010.85 1011.01 1011.12 1011.21 1011.27 1011.31 1011.33 1011.35 1011.38 1011.42 1011.48 1011.56 1011.67 1011.81 1012.00 1012.22 1012.50 1012.82 1013.19 1013.62 1014.09 1014.60 1015.14 1015.70 1016.27 1016.86 1017.44 1018.03 1018.63 1019.24 1019.86 1020.50 1021.15 1021.80 1022.45 1023.07
1009.92 1009.98 1010.09 1010.26 1010.46 1010.68 1010.89 1011.08 1011.23 1011.33 1011.39 1011.40 1011.37 1011.33 1011.27 1011.23 1011.20 1011.20 1011.25 1011.34 1011.49 1011.68 1011.94 1012.24 1012.60 1013.01 1013.47 1013.96 1014.47 1015.01 1015.55 1016.10 1016.64 1017.18 1017.71 1018.25 1018.79 1019.35 1019.93 1020.52 1021.12 1021.73 1022.32
1010.47 1010.43 1010.48 1010.60 1010.78 1010.99 1011.20 1011.39 1011.53 1011.62 1011.63 1011.59 1011.49 1011.37 1011.23 1011.11 1011.01 1010.96 1010.98 1011.05 1011.20 1011.41 1011.69 1012.03 1012.41 1012.84 1013.30 1013.78 1014.28 1014.78 1015.27 1015.76 1016.24 1016.71 1017.17 1017.64 1018.12 1018.61 1019.13 1019.67 1020.23 1020.81 1021.38
1011.07 1010.95 1010.94 1011.03 1011.20 1011.42 1011.64 1011.84 1011.98 1012.04 1012.03 1011.93 1011.77 1011.57 1011.36 1011.16 1011.00 1010.90 1010.88 1010.94 1011.08 1011.30 1011.58 1011.92 1012.31 1012.73 1013.17 1013.61 1014.05 1014.49 1014.91 1015.31 1015.71 1016.10 1016.48 1016.87 1017.29 1017.72 1018.19 1018.69 1019.22 1019.77 1020.32
1011.67 1011.51 1011.48 1011.57 1011.75 1011.99 1012.23 1012.45 1012.60 1012.66 1012.62 1012.48 1012.27 1012.01 1011.73 1011.47 1011.26 1011.11 1011.04 1011.08 1011.20 1011.40 1011.67 1011.99 1012.35 1012.73 1013.11 1013.48 1013.84 1014.18 1014.51 1014.81 1015.11 1015.41 1015.72 1016.05 1016.40 1016.79 1017.21 1017.67 1018.17 1018.69 1019.23
1012.28 1012.11 1012.09 1012.20 1012.41 1012.69 1012.97 1013.21 1013.38 1013.45 1013.40 1013.25 1013.01 1012.70 1012.38 1012.07 1011.80 1011.61 1011.50 1011.49 1011.58 1011.74 1011.97 1012.25 1012.54 1012.84 1013.14 1013.42 1013.67 1013.90 1014.12 1014.33 1014.53 1014.75 1014.98 1015.25 1015.55 1015.90 1016.29 1016.72 1017.18 1017.68 1018.19
1012.90 1012.76 1012.77 1012.92 1013.18 1013.49 1013.81 1014.09 1014.28 1014.36 1014.32 1014.17 1013.91 1013.58 1013.23 1012.88 1012.58 1012.35 1012.20 1012.15 1012.18 1012.29 1012.46 1012.66 1012.87 1013.07 1013.27 1013.43 1013.57 1013.70 1013.81 1013.92 1014.04 1014.18 1014.36 1014.58 1014.84 1015.16 1015.51 1015.91 1016.34 1016.80 1017.28
1013.57 1013.47 1013.53 1013.72 1014.01 1014.36 1014.71 1015.01 1015.22 1015.31 1015.28 1015.13 1014.88 1014.55 1014.19 1013.83 1013.50 1013.24 1013.06 1012.96 1012.94 1012.98 1013.07 1013.18 1013.29 1013.40 1013.48 1013.54 1013.57 1013.59 1013.61 1013.63 1013.69 1013.77 1013.91 1014.10 1014.33 1014.62 1014.95 1015.31 1015.71 1016.12 1016.54
1014.31 1014.26 1014.36 1014.57 1014.88 1015.24 1015.59 1015.89 1016.10 1016.20 1016.18 1016.04 1015.80 1015.48 1015.13 1014.77 1014.45 1014.17 1013.96 1013.82 1013.75 1013.72 1013.73 1013.76 1013.78 1013.78 1013.76 1013.72 1013.66 1013.60 1013.54 1013.51 1013.51 1013.56 1013.67 1013.83 1014.05 1014.32 1014.62 1014.95 1015.29 1015.65 1016.00
1015.13 1015.12 1015.23 1015.44 1015.73 1016.06 1016.38 1016.65 1016.85 1016.94 1016.92 1016.80 1016.58 1016.29 1015.96 1015.63 1015.31 1015.04 1014.81 1014.65 1014.53 1014.45 1014.40 1014.35 1014.29 1014.21 1014.10 1013.98 1013.85 1013.72 1013.61 1013.54 1013.51 1013.54 1013.63 1013.78 1013.99 1014.23 1014.51 1014.80 1015.10 1015.39 1015.67
1016.02 1016.01 1016.11 1016.28 1016.52 1016.78 1017.04 1017.26 1017.42 1017.49 1017.47 1017.36 1017.16 1016.91 1016.62 1016.32 1016.04 1015.78 1015.56 1015.39 1015.24 1015.12 1015.02 1014.91 1014.78 1014.64 1014.47 1014.29 1014.11 1013.94 1013.80 1013.70 1013.65 1013.67 1013.75 1013.89 1014.08 1014.31 1014.56 1014.82 1015.07 1015.31 1015.52
1016.92 1016.90 1016.94 1017.05 1017.20 1017.38 1017.55 1017.70 1017.81 1017.85 1017.82 1017.72 1017.56 1017.35 1017.11 1016.86 1016.61 1016.39 1016.18 1016.00 1015.84 1015.70 1015.55 1015.40 1015.23 1015.04 1014.83 1014.62 1014.40 1014.20 1014.04 1013.92 1013.86 1013.87 1013.94 1014.08 1014.26 1014.48 1014.71 1014.94 1015.16 1015.35 1015.51
1017.77 1017.70 1017.67 1017.69 1017.74 1017.82 1017.91 1017.99 1018.04 1018.05 1018.02 1017.94 1017.81 1017.65 1017.46 1017.25 1017.04 1016.85 1016.66 1016.48 1016.31 1016.15 1015.98 1015.79 1015.59 1015.37 1015.14 1014.89 1014.66 1014.44 1014.26 1014.13 1014.07 1014.07 1014.13 1014.26 1014.43 1014.64 1014.86 1015.08 1015.28 1015.44 1015.58
Thickness
5685 5684 5682 5680 5678 5675 5672 5670 5667 5664 5659 5656 5652 5648 5643 5639 5634 5628 5625 5620 5614 5610 5605 5600 5596 5589 5583 5576 5569 5562 5555 5548 5538 5523 5514 5505 5495 5487 5479 5471 5463 5456 5450
5678 5677 5675 5674 5671 5669 5668 5667 5663 5660 5656 5652 5648 5644 5641 5636 5631 5625 5621 5616 5611 5606 5602 5595 5591 5584 5578 5571 5563 5556 5549 5541 5531 5516 5504 5494 5487 5479 5470 5462 5454 5447 5441
5668 5667 5666 5665 5664 5663 5662 5660 5657 5654 5651 5647 5643 5640 5636 5632 5627 5622 5617 5612 5608 5603 5598 5591 5587 5579 5572 5565 5558 5551 5543 5533 5524 5513 5499 5488 5478 5470 5461 5453 5445 5437 5431
5655 5655 5655 5655 5654 5654 5652 5650 5648 5646 5643 5640 5637 5634 5630 5626 5621 5617 5611 5607 5602 5598 5592 5587 5581 5574 5568 5560 5552 5544 5535 5524 5513 5504 5491 5480 5470 5461 5453 5444 5436 5429 5423
5643 5642 5643 5643 5642 5641 5639 5638 5637 5635 5633 5630 5627 5624 5621 5617 5613 5608 5603 5599 5594 5589 5584 5579 5574 5568 5562 5554 5546 5538 5528 5517 5504 5495 5484 5473 5463 5454 5448 5440 5431 5422 5414
5630 5630 5629 5628 5627 5626 5625 5624 5623 5621 5620 5617 5615 5612 5609 5606 5602 5598 5593 5588 5583 5579 5574 5569 5564 5557 5551 5544 5538 5531 5524 5514 5502 5492 5482 5473 5464 5455 5444 5434 5423 5413 5406
5617 5616 5614 5613 5611 5610 5609 5608 5607 5606 5605 5603 5601 5598 5596 5593 5589 5585 5580 5576 5572 5568 5563 5556 5551 5545 5539 5532 5525 5519 5512 5506 5500 5492 5481 5472 5462 5453 5440 5428 5418 5411 5404
5603 5601 5599 5598 5596 5594 5593 5592 5591 5590 5588 5587 5585 5583 5580 5577 5574 5570 5565 5561 5558 5554 5549 5544 5538 5532 5525 5518 5511 5504 5497 5492 5485 5479 5473 5465 5456 5446 5437 5427 5415 5401 5391
5587 5586 5585 5583 5582 5580 5578 5577 5576 5574 5572 5571 5568 5566 5563 5561 5558 5554 5550 5546 5542 5538 5533 5529 5524 5519 5513 5506 5497 5492 5484 5477 5471 5464 5457 5450 5441 5433 5425 5413 5401 5390 5381
5573 5572 5570 5569 5567 5566 5564 5562 5560 5559 5557 5555 5552 5549 5547 5545 5542 5539 5535 5531 5527 5522 5517 5513 5508 5504 5499 5493 5486 5480 5473 5466 5457 5449 5442 5434 5427 5419 5412 5405 5397 5385 5374
5557 5556 5555 5554 5553 5551 5549 5547 5546 5543 5541 5539 5536 5534 5531 5529 5527 5524 5521 5516 5513 5508 5503 5498 5493 5489 5484 5479 5473 5467 5462 5453 5444 5435 5427 5419 5413 5406 5399 5392 5385 5379 5369
5542 5542 5540 5539 5537 5536 5535 5533 5531 5528 5526 5523 5521 5518 5515 5512 5510 5509 5506 5503 5499 5494 5489 5484 5480 5475 5470 5465 5459 5453 5446 5438 5429 5420 5413 5407 5401 5394 5387 5381 5373 5366 5360
5527 5526 5525 5523 5522 5520 5519 5517 5515 5513 5511 5508 5506 5503 5499 5496 5495 5493 5491 5488 5484 5479 5475 5470 5465 5461 5456 5450 5445 5439 5431 5424 5416 5409 5403 5398 5391 5383 5375 5367 5359 5352 5345
5512 5510 5509 5507 5506 5504 5502 5501 5499 5498 5496 5493 5491 5488 5485 5481 5479 5477 5475 5472 5468 5464 5459 5454 5450 5445 5440 5435 5429 5423 5416 5411 5405 5399 5392 5385 5377 5369 5362 5356 5347 5339 5331
5496 5494 5492 5491 5489 5487 5485 5484 5482 5481 5479 5477 5475 5473 5470 5468 5465 5464 5460 5457 5453 5448 5443 5438 5434 5429 5424 5418 5413 5407 5402 5396 5390 5385 5378 5371 5364 5357 5350 5343 5335 5327 5319
5481 5478 5476 5474 5472 5470 5469 5466 5466 5464 5463 5462 5460 5458 5455 5453 5451 5449 5446 5443 5439 5434 5429 5424 5419 5415 5410 5405 5400 5394 5389 5383 5378 5372 5365 5359 5353 5346 5339 5330 5323 5315 5309
5463 5461 5459 5458 5456 5453 5451 5450 5447 5446 5446 5444 5443 5442 5440 5438 5436 5434 5431 5428 5424 5419 5413 5409 5404 5400 5395 5390 5385 5381 5376 5370 5364 5358 5353 5347 5340 5334 5327 5319 5311 5304 5297
5443 5442 5441 5439 5437 5435 5433 5431 5430 5428 5425 5423 5423 5423 5422 5421 5419 5418 5415 5411 5406 5402 5397 5392 5388 5384 5379 5374 5370 5365 5360 5354 5349 5344 5339 5333 5327 5320 5313 5307 5300 5293 5286
5424 5422 5421 5420 5418 5416 5414 5412 5410 5408 5406 5403 5402 5402 5402 5401 5400 5398 5396 5391 5388 5384 5379 5375 5370 5366 5362 5358 5354 5349 5345 5340 5335 5329 5324 5318 5313 5306 5300 5294 5287 5280 5272
5402 5402 5401 5400 5398 5396 5394 5392 5390 5388 5385 5383 5382 5381 5381 5380 5377 5375 5373 5370 5367 5363 5360 5356 5353 5349 5344 5341 5337 5332 5328 5323 5318 5313 5308 5303 5297 5291 5285 5279 5273 5266 5260
5381 5380 5380 5378 5377 5375 5372 5371 5369 5367 5364 5361 5359 5361 5363 5358 5354 5351 5349 5346 5344 5341 5338 5335 5332 5328 5325 5321 5317 5314 5309 5305 5300 5296 5291 5285 5280 5274 5268 5262 5256 5250 5244
5360 5359 5357 5356 5354 5352 5350 5348 5347 5344 5342 5339 5337 5336 5338 5334 5331 5328 5326 5323 5320 5317 5315 5312 5309 5305 5302 5298 5295 5292 5288 5285 5280 5275 5270 5265 5260 5254 5249 5243 5237 5231 5225
5338 5337 5335 5333 5331 5330 5328 5325 5323 5321 5319 5316 5314 5312 5311 5308 5305 5303 5300 5298 5296 5293 5291 5288 5285 5282 5278 5274 5270 5266 5263 5260 5256 5252 5248 5243 5238 5233 5227 5222 5217 5211 5206
5315 5314 5313 5310 5308 5306 5304 5301 5299 5298 5295 5293 5290 5288 5286 5284 5281 5279 5276 5274 5272 5269 5266 5264 5260 5257 5253 5249 5246 5242 5238 5235 5231 5227 5223 5219 5215 5210 5205 5200 5195 5190 5184
5291 5290 5288 5286 5284 5282 5280 5278 5275 5273 5271 5269 5267 5265 5262 5260 5258 5255 5253 5251 5248 5245 5242 5239 5236 5232 5229 5225 5221 5218 5214 5211 5207 5203 5199 5195 5191 5187 5182 5178 5173 5167 5162
5267 5266 5264 5262 5260 5258 5256 5254 5252 5250 5247 5246 5243 5241 5238 5236 5234 5232 5229 5227 5224 5221 5217 5214 5211 5207 5204 5201 5198 5194 5191 5187 5184 5181 5177 5173 5168 5164 5160 5156 5151 5146 5142